DMSP 5D-3 F18 (USA 210)

Last updated on Fri Sep 11 2026 00:02:39 GMT+0000 (Coordinated Universal Time)

1 35951U 09057A 26253.56464008 .00000153 00000+0 10214-3 0 9994 2 35951 98.9139 234.1872 0011451 14.5982 345.5519 14.14939437871667
UTC large
Height (km)
Speed (km/s)
/
Latitude / Longitude
Inclination (degrees)
Orbital Period (minutes)
Azimuth
Elevation
Range (km)
Doppler Factor

Next 0 passes for location: London (51.5072 / 0.1276)

No passes found over London.
DMSP 5D-3 F18 (USA 210)